Location: G�migny
(47.9646°N, 1.6950°E)
Time: 20:53:31
(UTC+00:00)

YAOGAN 6 - Pass Details

Date: 23 January 2020
Orbit: 465 x 506 km, 97.0° (Epoch: 22 February)

Event Time Altitude Azimuth Distance (km) Brightness Sun altitude
Rises 18:41:10 0° 199° (SSW) 2,591 6.6 -20.3°
Reaches altitude 10° 18:43:36 10° 215° (SW) 1,709 5.9 -20.7°
Maximum altitude 18:46:30 22° 267° (W) 1,145 5.3 -21.1°
Drops below altitude 10° 18:49:24 10° 319° (NW) 1,707 5.8 -21.6°
Sets 18:51:51 0° 335° (NNW) 2,589 6.5 -22.0°
